STARLINK-2528

decayed
NORAD ID: 48307 Int'l Des: 2021-036 Owner: SPXS Country: US Constellation: starlink
LEOCIRCULAR
グループ

STARLINK-2528について

説明を読み込み中...

高度履歴

Altitude vs Time

uPlot chart will show altitude changes over time

軌道要素

1 48307U 21036AH 24203.63775640 .08817526 12369-4 67261-3 0 9990
2 48307 53.0318 220.5882 0001956 301.0519 162.2655 16.39650971179293
Epoch: Jul 21, 2024 • Age: 10134 hours

現在のステータス

Position data unavailable
打ち上げ日 Apr 29, 2021
運用期間 4.3 years
落下予定日 Jul 21, 2024
タイプ internet

技術仕様

分類 Payload
質量 260.00 kg
乾燥質量 248.00 kg
総質量 260.00 kg
長さ 0.20 m
直径 2.80 m
スパン 9.00 m
形状 Box + pan
製造者 SPXS
バスタイプ Starlink
フェーズステータス Unknown Transfer Status
所有者/国 SPXS/US

大規模コンステレーション

Loading constellations...